Weather History for Las Cruces, NM

Change the Weather History Date:

Friday, April 19, 2013

  Actual Average Record
Temperature  
Mean Temperature 49 °F -  
Max Temperature 66 °F 74 °F 86 °F (2008)
Min Temperature 32 °F 46 °F 32 °F (2013)
Degree Days  
Heating Degree Days 16    
Moisture  
Dew Point -3 °F    
Average Humidity 11    
Maximum Humidity 21    
Minimum Humidity 6    
Precipitation  
Precipitation 0.00 in - - ()
Sea Level Pressure  
Sea Level Pressure 30.19 in    
Wind  
Wind Speed 8 mph (West)    
Max Wind Speed 14 mph    
Max Gust Speed -    
Visibility 10 miles    
Events      
Averages and records for this station are not official NWS values.
T = Trace of Precipitation, MM = Missing Value Source: NWS Daily Summary

Daily Weather History Graph

Daily Weather History Graph

Search for Another Location

Airport:

Trip Planner

Search our weather history database for the weather conditions in past years. The results will help you decide how hot, cold, wet, or windy it might be!

Date:

Astronomy

Apr. 19, 2013 Rise Set
Actual Time 6:33 AM MDT 7:40 PM MDT
Civil Twilight 6:08 AM MDT 8:05 PM MDT
Nautical Twilight 5:38 AM MDT 8:35 PM MDT
Astronomical Twilight 5:06 AM MDT 9:07 PM MDT
Moon 1:48 PM MDT (4/19) 2:29 AM MDT (4/19)
Length of Visible Light 13h 57m
Length of Day
13h 06m
Waxing Gibbous, 62% of the Moon is Illuminated
Apr 19
Waxing Gibbous
Apr 25
Full
May 2
Last Quarter
May 9
New
May 17
First Quarter

Hourly Weather History & Observations

Time (MDT) Temp. Windchill Dew Point Humidity Pressure Visibility Wind Dir Wind Speed Gust Speed Precip Events Conditions
12:15 AM 46.9 °F - -0.2 °F 14% 30.20 in 10.0 mi NNE 8.1 mph - N/A   Clear
12:35 AM 46.4 °F 41.9 °F 0.1 °F 15% 30.21 in 10.0 mi NNE 9.2 mph - N/A   Clear
12:55 AM 46.0 °F 41.0 °F -0.2 °F 15% 30.21 in 10.0 mi NNE 10.4 mph - N/A   Clear
1:15 AM 45.5 °F 40.3 °F -1.3 °F 14% 30.22 in 10.0 mi NNE 10.4 mph - N/A   Clear
1:35 AM 45.5 °F 39.6 °F -1.5 °F 14% 30.22 in 10.0 mi North 12.7 mph - N/A   Clear
1:55 AM 44.6 °F 38.4 °F -2.2 °F 14% 30.21 in 10.0 mi North 12.7 mph - N/A   Clear
2:15 AM 44.4 °F 38.2 °F -2.2 °F 14% 30.21 in 10.0 mi North 12.7 mph - N/A   Clear
2:35 AM 44.1 °F 37.4 °F -2.4 °F 14% 30.21 in 10.0 mi NNE 13.8 mph - N/A   Clear
2:55 AM 43.3 °F 37.7 °F -2.2 °F 15% 30.21 in 10.0 mi NNE 10.4 mph - N/A   Clear
3:15 AM 42.8 °F 37.0 °F -2.4 °F 15% 30.21 in 10.0 mi North 10.4 mph - N/A   Clear
3:35 AM 42.3 °F 36.3 °F -2.7 °F 15% 30.22 in 10.0 mi NNE 10.4 mph - N/A   Clear
3:55 AM 42.6 °F 37.2 °F -2.7 °F 15% 30.22 in 10.0 mi NNE 9.2 mph - N/A   Clear
4:15 AM 41.4 °F 36.2 °F -2.9 °F 16% 30.23 in 10.0 mi NE 8.1 mph - N/A   Clear
4:55 AM 40.1 °F 35.3 °F -3.3 °F 16% 30.23 in 10.0 mi North 6.9 mph - N/A   Clear
5:15 AM 38.3 °F 33.2 °F -3.5 °F 17% 30.24 in 10.0 mi North 6.9 mph - N/A   Clear
5:35 AM 38.8 °F 33.2 °F -2.6 °F 17% 30.24 in 10.0 mi North 8.1 mph - N/A   Clear
5:55 AM 35.6 °F 29.2 °F -3.6 °F 19% 30.25 in 10.0 mi NNW 8.1 mph - N/A   Clear
6:15 AM 34.7 °F 29.6 °F -3.5 °F 20% 30.25 in 10.0 mi North 5.8 mph - N/A   Clear
6:35 AM 32.2 °F 25.0 °F -3.8 °F 21% 30.25 in 10.0 mi NNW 8.1 mph - N/A   Clear
6:55 AM 33.1 °F 25.5 °F -2.9 °F 21% 30.26 in 10.0 mi NNW 9.2 mph - N/A   Clear
7:15 AM 36.0 °F 29.0 °F -2.2 °F 20% 30.28 in 10.0 mi NNW 9.2 mph - N/A   Clear
7:35 AM 39.6 °F 33.5 °F -1.1 °F 18% 30.28 in 10.0 mi North 9.2 mph - N/A   Clear
7:55 AM 43.2 °F 39.0 °F -0.8 °F 16% 30.29 in 10.0 mi NNW 6.9 mph - N/A   Clear
8:15 AM 45.1 °F 39.5 °F -0.0 °F 15% 30.29 in 10.0 mi North 11.5 mph - N/A   Clear
8:35 AM 46.9 °F - 0.1 °F 14% 30.29 in 10.0 mi NNE 11.5 mph - N/A   Clear
8:55 AM 47.8 °F - 0.5 °F 14% 30.30 in 10.0 mi North 10.4 mph - N/A   Clear
9:15 AM 48.4 °F - 0.5 °F 14% 30.30 in 10.0 mi NNE 9.2 mph - N/A   Clear
9:35 AM 50.0 °F - 0.7 °F 13% 30.30 in 10.0 mi NNE 5.8 mph - N/A   Clear
9:55 AM 50.9 °F - -0.2 °F 12% 30.31 in 10.0 mi NNE 6.9 mph - N/A   Clear
10:15 AM 50.7 °F - -0.6 °F 12% 30.31 in 10.0 mi NE 5.8 mph - N/A   Clear
10:35 AM 51.1 °F - -0.6 °F 12% 30.31 in 10.0 mi East 3.5 mph - N/A   Clear
10:55 AM 51.8 °F - -0.8 °F 12% 30.31 in 10.0 mi Calm Calm - N/A   Clear
11:15 AM 54.3 °F - 0.1 °F 11% 30.30 in 10.0 mi ESE 5.8 mph - N/A   Clear
11:35 AM 53.6 °F - -1.5 °F 10% 30.28 in 10.0 mi South 4.6 mph - N/A   Clear
11:55 AM 54.9 °F - 0.3 °F 11% 30.28 in 10.0 mi Calm Calm - N/A   Clear
12:15 PM 57.0 °F - 0.9 °F 10% 30.27 in 10.0 mi South 4.6 mph - N/A   Clear
12:35 PM 57.7 °F - 0.5 °F 10% 30.27 in 10.0 mi SSE 4.6 mph - N/A   Clear
12:55 PM 57.9 °F - -0.6 °F 9% 30.25 in 10.0 mi SE 4.6 mph - N/A   Clear
1:15 PM 59.4 °F - -1.1 °F 9% 30.24 in 10.0 mi SSW 4.6 mph - N/A   Clear
1:35 PM 59.4 °F - -2.0 °F 8% 30.23 in 10.0 mi SSW 4.6 mph - N/A   Clear
1:55 PM 59.5 °F - -2.4 °F 8% 30.21 in 10.0 mi SSW 4.6 mph - N/A   Clear
2:15 PM 62.1 °F - -2.6 °F 7% 30.21 in 10.0 mi South 8.1 mph - N/A   Clear
2:35 PM 62.2 °F - -4.2 °F 7% 30.20 in 10.0 mi SE 6.9 mph - N/A   Clear
2:55 PM 62.4 °F - -4.4 °F 7% 30.19 in 10.0 mi SW 3.5 mph - N/A   Clear
3:15 PM 63.0 °F - -3.6 °F 7% 30.19 in 10.0 mi SSE 4.6 mph - N/A   Clear
3:35 PM 64.6 °F - -3.1 °F 7% 30.17 in 10.0 mi SW 6.9 mph - N/A   Clear
3:55 PM 64.8 °F - -4.0 °F 6% 30.16 in 10.0 mi West 9.2 mph - N/A   Clear
4:15 PM 64.4 °F - -4.0 °F 6% 30.14 in 10.0 mi SSW 3.5 mph - N/A   Clear
4:35 PM 65.3 °F - -3.3 °F 6% 30.13 in 10.0 mi WSW 8.1 mph - N/A   Clear
4:55 PM 66.6 °F - -2.2 °F 6% 30.12 in 10.0 mi South 6.9 mph - N/A   Clear
5:15 PM 65.1 °F - -2.0 °F 7% 30.11 in 10.0 mi Calm Calm - N/A   Clear
5:35 PM 64.9 °F - -2.0 °F 7% 30.10 in 10.0 mi South 6.9 mph - N/A   Clear
5:55 PM 65.5 °F - -2.2 °F 7% 30.09 in 10.0 mi South 3.5 mph - N/A   Clear
6:15 PM 65.8 °F - -3.3 °F 6% 30.08 in 10.0 mi SSW 6.9 mph - N/A   Clear
6:35 PM 65.3 °F - -4.0 °F 6% 30.08 in 10.0 mi SSW 6.9 mph - N/A   Clear
6:55 PM 64.6 °F - -5.3 °F 6% 30.08 in 10.0 mi SW 11.5 mph - N/A   Clear
7:15 PM 63.5 °F - -6.2 °F 6% 30.08 in 10.0 mi West 6.9 mph - N/A   Clear
7:35 PM 61.9 °F - -7.8 °F 6% 30.08 in 10.0 mi WSW 6.9 mph - N/A   Clear
7:55 PM 59.7 °F - -7.1 °F 6% 30.08 in 10.0 mi SW 5.8 mph - N/A   Clear
8:15 PM 56.7 °F - -7.2 °F 7% 30.08 in 10.0 mi SW 3.5 mph - N/A   Clear
8:35 PM 55.8 °F - -7.6 °F 7% 30.08 in 10.0 mi SSW 5.8 mph - N/A   Clear
8:55 PM 54.7 °F - -7.6 °F 8% 30.08 in 10.0 mi SW 6.9 mph - N/A   Clear
9:15 PM 54.0 °F - -7.1 °F 8% 30.09 in 10.0 mi SW 6.9 mph - N/A   Clear
9:35 PM 53.4 °F - -6.2 °F 8% 30.09 in 10.0 mi SSW 5.8 mph - N/A   Clear
9:55 PM 52.5 °F - -6.3 °F 9% 30.08 in 10.0 mi SSW 5.8 mph - N/A   Clear
10:15 PM 51.4 °F - -6.7 °F 9% 30.08 in 10.0 mi SSW 5.8 mph - N/A   Clear
10:35 PM 51.1 °F - -6.7 °F 9% 30.08 in 10.0 mi SSW 6.9 mph - N/A   Clear
10:55 PM 50.9 °F - -6.5 °F 9% 30.07 in 10.0 mi SSW 5.8 mph - N/A   Clear
11:15 PM 51.6 °F - -5.8 °F 9% 30.07 in 10.0 mi SSW 5.8 mph - N/A   Clear
11:35 PM 50.0 °F - -6.5 °F 9% 30.06 in 10.0 mi SSW 6.9 mph - N/A   Clear
11:55 PM 49.8 °F - -6.5 °F 10% 30.06 in 10.0 mi SSW 4.6 mph - N/A   Clear